Weather History for Selinsgrove, PA

Change the Weather History Date:

Saturday, October 19, 2013

  Actual Average (KIPT) Record (KIPT)
Temperature  
Mean Temperature 50 °F 51 °F  
Max Temperature 60 °F 61 °F 82 °F (1963)
Min Temperature 39 °F 40 °F 24 °F (1974)
Degree Days  
Heating Degree Days 16 14  
Month to date heating degree days 217  
Since 1 July heating degree days 345  
Cooling Degree Days 0 0  
Month to date cooling degree days 1  
Year to date cooling degree days 698  
Moisture  
Dew Point 44 °F    
Average Humidity 89    
Maximum Humidity 100    
Minimum Humidity 60    
Precipitation  
Precipitation 0.10 in 0.11 in 2.90 in (1906)
Month to date precipitation 2.17  
Year to date precipitation 33.36  
Snow  
Snow 0.00 in - - ()
Month to date snowfall  
Since 1 July snowfall  
Since 1 September snowfall  
Snow Depth -    
Sea Level Pressure  
Sea Level Pressure 29.90 in    
Wind  
Wind Speed 1 mph (SW)    
Max Wind Speed 9 mph    
Max Gust Speed 24 mph    
Visibility 4 miles    
Events Fog , Rain    
T = Trace of Precipitation, MM = Missing Value Source: NWS Daily Summary

Daily Weather History Graph

Daily Weather History Graph

Search for Another Location

Airport:

Trip Planner

Search our weather history database for the weather conditions in past years. The results will help you decide how hot, cold, wet, or windy it might be!

Date:

Astronomy

Oct. 19, 2013 Rise Set
Actual Time 7:23 AM EDT 6:20 PM EDT
Civil Twilight 6:55 AM EDT 6:48 PM EDT
Nautical Twilight 6:23 AM EDT 7:20 PM EDT
Astronomical Twilight 5:51 AM EDT 7:52 PM EDT
Moon 6:46 PM EDT (10/19) 7:59 AM EDT (10/19)
Length of Visible Light 11h 52m
Length of Day
10h 57m
Waxing Gibbous, 99% of the Moon is Illuminated
Oct 19
Waxing Gibbous
Oct 26
Last Quarter
Nov 3
New
Nov 10
First Quarter
Nov 17
Full

Hourly Weather History & Observations

Time (EDT) Temp. Windchill Dew Point Humidity Pressure Visibility Wind Dir Wind Speed Gust Speed Precip Events Conditions
12:53 AM 39.9 °F - 37.9 °F 93% 30.01 in 3.0 mi Calm Calm - N/A   Clear
1:53 AM 39.9 °F - 37.9 °F 93% 30.00 in 3.0 mi Calm Calm - N/A   Clear
2:53 AM 39.0 °F - 37.0 °F 93% 30.00 in 3.0 mi Calm Calm - N/A   Clear
3:25 AM 39.2 °F - 37.4 °F 93% 29.99 in 3.0 mi Calm Calm - N/A   Scattered Clouds
3:33 AM 39.2 °F - 37.4 °F 93% 29.99 in 3.0 mi Calm Calm - N/A   Mostly Cloudy
3:53 AM 39.9 °F - 37.9 °F 93% 29.99 in 3.0 mi Calm Calm - N/A   Overcast
4:04 AM 41.0 °F - 39.2 °F 93% 29.99 in 1.5 mi Calm Calm - N/A   Overcast
4:10 AM 41.0 °F - 39.2 °F 93% 29.99 in 0.8 mi Calm Calm - N/A   Mist
4:53 AM 42.1 °F - 41.0 °F 96% 29.98 in 0.2 mi Calm Calm - N/A Fog Fog
5:53 AM 41.0 °F - 39.9 °F 96% 29.98 in 0.2 mi Calm Calm - N/A Fog Fog
6:53 AM 41.0 °F - 39.9 °F 96% 29.97 in 0.2 mi Calm Calm - N/A Fog Fog
7:53 AM 39.0 °F 36.8 °F 39.0 °F 100% 29.97 in 0.2 mi NW 3.5 mph - N/A Fog Fog
8:53 AM 41.0 °F - 39.9 °F 96% 29.96 in 0.2 mi Calm Calm - N/A Fog Fog
9:53 AM 42.1 °F - 42.1 °F 100% 29.97 in 0.2 mi Calm Calm - 0.01 in Fog Fog
10:42 AM 44.6 °F - 42.8 °F 93% 29.94 in 1.2 mi Calm Calm - N/A   Overcast
10:53 AM 46.0 °F - 45.0 °F 96% 29.94 in 3.0 mi Calm Calm - N/A   Mostly Cloudy
11:07 AM 48.2 °F - 44.6 °F 87% 29.92 in 6.0 mi Calm Calm - N/A   Haze
11:53 AM 55.0 °F - 46.0 °F 72% 29.90 in 10.0 mi Calm Calm - N/A   Scattered Clouds
12:53 PM 60.1 °F - 46.0 °F 60% 29.88 in 10.0 mi SSW 6.9 mph - N/A   Overcast
1:53 PM 59.0 °F - 46.0 °F 62% 29.83 in 10.0 mi South 8.1 mph 17.3 mph 0.00 in Rain Light Rain
2:53 PM 59.0 °F - 48.9 °F 69% 29.80 in 10.0 mi SSE 5.8 mph - 0.00 in   Overcast
3:53 PM 55.9 °F - 51.1 °F 84% 29.81 in 5.0 mi Calm Calm - 0.02 in Rain Light Rain
4:53 PM 55.9 °F - 50.0 °F 80% 29.78 in 10.0 mi Variable 3.5 mph - 0.03 in Rain Light Rain
5:53 PM 54.0 °F - 50.0 °F 86% 29.78 in 6.0 mi SW 3.5 mph - 0.00 in Rain Light Rain
6:53 PM 53.1 °F - 52.0 °F 96% 29.78 in 5.0 mi Calm Calm - 0.03 in Rain Light Rain
7:53 PM 53.1 °F - 51.1 °F 93% 29.79 in 4.0 mi Calm Calm - 0.00 in Rain Light Rain
8:53 PM 53.1 °F - 51.1 °F 93% 29.78 in 4.0 mi Calm Calm - 0.00 in   Overcast
9:53 PM 48.9 °F - 48.0 °F 97% 29.80 in 3.0 mi Calm Calm - 0.01 in   Clear
10:14 PM 50.0 °F - 48.2 °F 94% 29.80 in 2.5 mi Calm Calm - N/A   Mostly Cloudy
10:39 PM 50.0 °F - 46.4 °F 87% 29.81 in 6.0 mi Calm Calm - N/A   Scattered Clouds
10:53 PM 51.1 °F - 48.0 °F 89% 29.82 in 10.0 mi WSW 6.9 mph - N/A   Mostly Cloudy
11:53 PM 50.0 °F - 39.9 °F 68% 29.85 in 10.0 mi West 9.2 mph 24.2 mph N/A   Clear